Tracking 25648 objects as of 17-May-2022
HD Live streaming from Space Station
objects crossing your sky now

COSMOS 2251 DEB

Track COSMOS 2251 DEB now!
10-day predictions


NORAD ID: 36529
Int'l Code: 1993-036BCP
Perigee: 733.1 km
Apogee: 963.9 km
Inclination: 74.0 °
Period: 101.7 minutes
Semi major axis: 7219 km
RCS: 0.003 m2 (small)
Launch date: June 16, 1993
Source: Commonwealth of Independent States (former USSR) (CIS)
Launch site: PLESETSK MISSILE AND SPACE COMPLEX (PKMTR)

Note: This is SATELLITE DEBRIS
aabbcc
Your satellite tracking list
Your tracking list is empty




NASA's NSSDC Master Catalog

Two Line Element Set (TLE):
1 36529U 93036BCP 22135.94652986  .00007427  00000-0  33823-2 0  9999
2 36529  74.0378 224.1739 0159791 254.9967 224.5969 14.15277713648832
Source of the keplerian elements: AFSPC